GFSSE_sfc_dewp_000.txt.gz
Dewpoint
71 74 76 75 75 75 76 76 77 77 77 77 77 78 78 78 78 78 78 78 77 77 76 76 76 75 75 75 74 74 74 74 73 72 73 73 74 72 71 71 72 69 71
73 74 76 76 76 77 77 77 77 77 77 77 78 78 78 78 78 78 78 77 77 77 76 76 76 75 75 75 73 73 73 73 72 71 71 73 73 72 71 71 71 70 71
73 75 75 77 77 77 77 77 77 77 78 77 77 78 78 78 78 78 78 77 77 76 75 75 75 75 74 74 73 72 71 73 71 71 71 73 73 72 72 72 71 72 71
73 74 75 77 78 77 77 77 77 78 78 78 79 78 79 79 78 78 76 76 75 75 75 74 74 74 73 73 73 73 72 72 71 70 72 72 71 72 72 71 71 72 70
74 75 75 78 78 77 78 78 78 78 78 78 79 78 79 78 77 76 75 75 75 75 75 74 73 73 73 72 72 73 73 73 73 71 72 71 71 72 71 71 70 71 70
74 75 77 78 77 78 78 78 78 78 77 78 78 78 77 77 75 75 75 75 75 75 74 73 73 73 73 73 73 73 73 73 72 72 72 72 72 71 71 71 70 71 72
74 75 76 77 77 77 78 79 79 78 78 78 78 77 78 77 76 76 75 75 74 74 73 73 72 72 73 73 74 73 72 73 71 72 71 72 73 73 72 73 71 71 70
75 76 75 77 77 78 78 78 79 78 78 78 77 77 78 77 76 75 75 74 73 73 72 72 73 73 74 74 74 74 73 72 71 71 71 72 74 74 72 72 73 72 71
76 77 77 76 76 78 79 79 78 78 78 78 78 77 77 76 75 75 75 74 74 73 73 73 74 74 75 75 75 74 73 73 73 73 72 73 75 74 72 72 72 72 71
74 76 77 77 77 77 77 78 77 78 78 77 77 76 77 76 75 74 75 76 74 74 73 73 74 75 75 75 74 74 74 73 73 72 72 73 75 74 72 71 72 72 72
73 75 75 76 76 77 77 77 78 77 77 77 77 77 77 74 72 68 71 71 73 74 74 73 74 75 75 74 74 74 74 74 72 73 73 74 75 75 73 72 70 71 73
72 73 74 74 75 76 77 75 75 76 76 76 75 75 74 72 72 73 71 69 70 74 74 74 74 74 73 71 70 72 73 73 72 73 72 74 75 74 73 73 72 71 71
71 72 72 74 75 75 76 75 75 75 75 75 74 74 73 73 73 72 71 71 72 73 72 73 73 72 72 70 70 68 70 71 71 72 71 74 74 74 74 73 73 72 71
70 70 72 74 73 74 75 75 75 74 74 74 74 73 73 72 70 72 71 72 72 72 71 72 71 71 71 70 70 70 70 68 66 72 72 75 74 74 75 74 74 73 72
69 69 72 74 73 74 73 74 74 74 74 74 73 74 73 72 71 73 71 72 71 72 71 71 70 70 70 70 71 70 70 70 68 68 72 75 75 75 75 75 75 74 73
69 70 72 72 73 73 73 73 73 72 72 73 72 73 73 72 71 72 71 70 70 71 71 71 71 70 70 70 70 70 69 69 70 67 71 73 75 75 75 76 76 76 74
67 71 71 72 73 73 73 73 72 73 73 71 71 71 71 73 72 71 70 70 70 70 70 70 70 69 69 70 69 69 69 69 69 69 69 73 73 75 75 75 77 76 76
68 70 71 71 73 72 73 73 74 73 72 72 72 71 71 72 72 71 69 69 70 70 70 68 67 67 67 68 68 67 68 68 68 68 68 70 73 73 74 74 75 76 76
66 69 70 72 73 73 73 74 73 73 73 72 72 71 71 71 72 71 69 70 70 69 68 68 67 67 67 67 67 67 66 66 67 68 68 69 70 72 71 73 73 74 75
66 68 67 68 72 73 73 73 73 73 72 72 72 71 71 71 72 72 70 70 70 69 68 68 67 67 67 66 68 68 67 68 68 68 67 67 68 69 71 72 72 72 74
67 68 68 69 71 73 72 71 71 70 70 71 71 72 72 71 71 70 70 70 70 68 68 68 67 66 66 66 65 64 64 66 66 67 68 68 68 68 70 70 72 72 72
66 67 70 69 72 72 72 71 71 71 71 72 72 73 72 71 71 71 70 70 68 68 66 66 66 65 65 66 64 61 59 60 62 63 65 66 68 67 67 69 70 71 71
66 70 70 71 72 72 72 72 72 71 70 69 69 70 68 65 66 68 67 66 66 66 65 65 65 64 63 65 65 62 59 56 60 61 62 64 66 67 67 68 69 70 71
68 71 71 72 73 73 72 72 70 67 62 64 66 66 63 63 65 65 64 66 66 66 65 65 67 65 64 62 64 65 63 62 59 58 61 62 63 63 65 67 68 69 69
68 71 71 72 73 73 71 72 65 59 61 65 65 63 62 62 64 64 66 66 65 65 64 65 64 64 64 63 62 62 61 61 60 58 56 58 60 62 64 66 67 68 68
69 71 72 71 71 68 67 62 58 60 61 62 62 60 61 59 64 66 64 63 64 63 64 64 64 64 63 63 63 62 60 59 58 58 57 57 58 61 63 64 65 66 68

GFSSE_sfc_dewp_003.txt.gz
Dewpoint
71 73 75 76 75 75 74 74 74 74 74 75 77 77 77 77 77 77 77 76 76 76 76 75 74 74 74 74 74 74 73 73 73 72 73 73 72 71 71 71 71 70 71
71 73 76 75 75 75 74 75 75 75 76 76 77 77 77 77 77 78 76 76 76 76 75 75 74 75 74 73 72 72 72 72 72 71 72 73 72 71 71 72 71 70 70
73 73 74 76 76 76 76 76 76 76 76 77 77 77 78 77 77 77 76 76 75 75 75 75 74 74 74 73 72 71 71 71 72 71 72 73 73 71 72 71 71 71 72
74 74 75 76 77 76 76 76 77 76 76 77 78 78 78 77 78 77 76 75 75 75 74 73 73 72 72 73 72 72 72 71 71 71 72 73 71 71 72 70 70 70 71
74 75 75 77 76 77 77 77 78 77 77 78 78 78 78 77 76 75 74 74 74 74 73 73 72 72 72 72 72 72 73 72 71 71 72 72 71 72 71 70 69 70 69
74 75 76 77 77 77 77 78 78 78 78 78 78 78 77 76 75 75 74 74 74 73 73 72 72 71 71 72 72 72 72 73 72 71 71 72 72 71 72 70 70 70 70
75 75 76 78 78 78 78 78 78 77 78 78 78 77 76 76 75 75 74 74 73 73 72 72 72 72 72 72 72 73 71 73 71 71 71 72 72 73 72 72 71 72 72
75 76 76 77 77 78 78 78 78 77 77 77 76 76 76 76 76 75 74 73 73 72 72 72 73 73 73 73 74 73 73 72 72 71 71 72 73 74 72 72 71 71 71
76 76 76 76 76 77 78 78 78 77 77 76 76 76 76 76 75 75 74 73 73 72 72 73 74 74 74 74 74 74 73 73 72 72 71 71 75 73 72 72 73 71 71
76 76 76 76 76 76 77 77 76 77 76 76 76 76 76 75 74 74 75 75 74 74 74 74 73 74 74 74 74 73 73 74 72 72 72 73 74 73 72 71 72 72 72
75 75 76 76 76 76 76 76 76 76 76 76 76 76 77 74 73 71 71 72 72 74 74 73 73 73 73 73 74 73 72 72 71 72 73 73 74 74 73 72 72 72 73
72 74 74 75 76 76 77 76 75 75 75 74 74 75 74 72 71 70 71 70 70 72 74 73 73 73 73 71 69 70 70 72 72 71 72 73 74 73 73 72 72 71 73
72 73 74 74 75 75 75 75 75 75 74 74 74 74 73 72 71 71 70 71 71 72 72 72 72 71 71 70 70 70 69 69 70 72 72 73 74 73 74 73 72 71 71
72 72 73 75 75 74 75 74 74 74 73 74 73 73 72 70 70 69 70 70 71 71 70 70 70 70 70 71 70 70 70 70 68 67 72 74 74 73 74 74 73 72 71
71 72 73 74 74 74 74 74 74 73 74 73 73 73 73 70 70 70 71 71 70 70 70 70 70 70 69 69 70 70 70 70 70 67 71 74 75 75 74 74 74 73 72
70 71 73 74 74 74 73 73 73 73 73 73 72 73 73 71 70 71 70 70 69 70 70 70 69 69 69 69 69 69 68 69 70 69 67 72 75 75 75 74 75 74 72
69 70 72 73 73 73 73 71 71 72 72 72 72 72 72 72 71 70 69 68 69 69 69 69 68 67 67 67 67 68 68 68 68 69 68 70 72 74 76 75 74 74 75
69 71 72 73 73 73 73 72 72 73 72 72 71 70 70 72 71 70 68 68 69 69 68 68 66 66 66 66 66 67 67 67 67 68 68 68 71 72 74 75 75 74 74
68 70 71 72 73 73 73 73 72 72 72 71 72 71 70 71 71 70 68 68 68 68 68 67 66 65 65 65 66 66 67 66 67 67 67 68 68 71 72 73 74 74 73
67 70 71 72 73 73 73 72 72 72 72 72 71 70 70 71 71 70 70 69 69 68 67 66 66 65 65 65 66 66 66 66 66 67 67 67 68 68 70 71 72 71 73
66 69 70 70 72 73 72 71 70 70 70 70 71 71 71 70 71 70 69 69 68 67 67 67 66 65 65 65 64 63 63 63 64 64 66 67 67 68 69 71 71 71 72
66 67 68 69 71 72 72 70 71 70 70 70 71 72 72 71 71 70 69 68 68 67 65 65 65 64 65 65 63 60 58 59 61 62 62 65 65 67 67 68 69 70 71
65 67 68 68 71 72 72 71 71 71 70 69 69 70 70 70 70 69 68 68 65 65 64 64 64 63 63 64 64 61 57 55 59 61 61 61 63 63 65 66 68 69 70
65 67 68 69 71 72 72 70 70 69 67 65 66 68 67 66 65 67 65 64 65 65 64 64 66 65 63 61 63 64 62 61 57 56 59 60 61 61 63 64 66 67 68
66 68 69 70 71 72 72 71 70 66 63 63 65 65 63 63 63 63 64 66 65 64 63 64 63 63 63 62 61 61 60 60 59 57 54 56 59 60 62 63 64 65 67
67 69 70 71 71 72 72 71 69 63 61 63 63 62 60 59 60 64 66 64 63 63 63 63 63 63 63 63 62 61 59 57 56 56 55 55 56 58 60 61 62 63 65

GFSSE_sfc_dewp_006.txt.gz
Dewpoint
70 72 74 75 74 74 74 74 74 74 75 75 75 76 76 76 77 77 77 76 76 76 75 75 74 75 74 74 74 73 73 73 72 72 73 72 71 71 71 71 71 70 72
71 73 75 75 75 74 74 74 74 74 75 76 76 77 76 76 76 76 76 76 75 75 75 74 74 74 73 72 72 72 72 72 72 72 73 72 71 70 71 70 71 68 70
71 73 73 76 75 74 74 74 74 74 75 76 77 77 76 76 76 75 75 75 75 74 74 74 74 74 73 72 71 70 71 71 71 71 73 73 72 72 71 70 71 71 71
73 73 73 76 76 75 75 76 75 75 76 77 77 77 77 76 76 75 75 75 74 74 74 73 73 72 72 72 72 71 70 70 71 71 72 72 70 72 71 70 71 71 71
74 74 75 76 76 76 76 76 77 77 76 76 77 76 77 76 76 75 74 74 74 73 73 72 72 72 71 71 72 72 72 71 70 71 72 72 72 71 71 69 71 70 71
74 74 76 76 76 76 76 77 76 77 77 77 77 76 76 75 74 74 73 73 73 73 72 71 71 71 72 72 72 73 72 71 71 71 71 72 72 71 71 68 70 69 69
74 75 75 77 77 76 76 76 77 77 77 77 77 76 76 75 74 74 74 73 73 72 72 72 72 72 72 72 73 73 72 72 71 71 71 72 72 72 71 71 70 70 71
75 75 75 76 77 77 77 77 77 77 77 77 76 76 75 75 75 74 73 72 72 71 72 72 73 73 73 74 74 73 73 72 71 71 71 72 73 72 72 71 70 71 71
76 75 75 76 76 77 77 77 77 77 76 76 75 76 76 75 75 74 74 73 72 72 72 73 73 74 74 74 74 73 73 73 73 72 71 72 73 73 71 72 71 70 71
75 75 75 75 75 75 76 76 75 76 75 75 76 75 75 75 74 74 74 74 73 73 74 74 73 73 73 73 72 72 71 71 73 73 73 72 73 73 72 71 73 71 71
74 75 75 75 75 75 76 76 75 75 75 75 75 75 76 74 74 74 72 73 73 73 73 74 73 73 73 73 73 72 72 74 73 73 73 73 73 72 73 71 72 72 72
72 74 75 75 75 75 77 76 75 75 75 75 75 75 75 74 73 69 72 71 71 71 73 73 72 73 73 71 71 71 70 71 73 73 72 73 73 72 73 72 72 71 73
72 73 74 75 75 75 76 75 75 75 74 75 75 74 74 73 72 73 70 71 72 72 72 72 72 71 71 71 71 71 70 71 70 70 71 73 74 73 73 73 71 72 72
71 73 74 74 75 75 75 75 74 74 74 74 74 74 73 72 71 71 71 72 72 72 71 71 71 71 71 71 70 71 71 70 70 70 70 73 74 73 73 73 73 71 71
71 72 73 74 74 75 74 74 74 74 74 74 74 74 73 71 70 70 72 72 72 72 71 71 71 71 70 70 70 70 70 70 70 70 69 71 74 74 73 73 73 73 72
71 71 73 74 74 74 74 74 74 74 74 74 73 74 73 72 71 71 71 71 71 71 71 72 71 70 69 69 69 69 69 69 70 69 69 70 72 74 75 74 73 73 73
71 71 72 73 74 73 73 73 73 73 73 73 73 73 72 72 71 71 71 71 71 70 70 70 69 68 68 68 68 68 68 68 69 69 69 71 71 72 73 75 75 74 74
71 71 72 73 73 73 73 72 72 73 73 73 73 72 72 73 73 71 71 70 71 71 70 69 68 67 67 67 67 67 67 68 68 68 68 69 71 70 73 73 75 74 73
70 70 71 73 73 73 72 72 73 73 72 72 73 72 72 72 72 72 70 70 70 70 70 69 68 68 67 67 67 68 67 68 68 67 68 68 68 70 69 71 73 74 73
69 71 71 72 73 73 73 73 72 72 72 72 73 72 72 72 72 72 71 71 71 70 69 68 68 68 67 67 66 66 66 66 67 67 66 67 68 69 69 71 73 72 73
67 70 71 72 73 73 72 71 71 71 72 72 72 72 72 71 72 71 71 70 70 69 69 68 68 67 67 67 66 65 64 64 64 64 65 66 64 65 69 71 72 73 72
66 69 70 71 72 73 72 71 72 71 71 71 72 72 72 72 72 71 70 70 70 69 68 67 67 66 67 68 65 63 61 61 62 63 64 64 63 64 64 67 69 69 70
65 68 69 70 71 72 72 71 71 71 71 71 71 72 72 71 71 71 70 70 69 67 67 66 66 66 65 66 66 64 60 59 62 62 63 63 64 65 66 66 66 67 69
65 67 69 69 70 71 72 71 71 70 69 69 69 71 71 71 70 69 68 67 67 67 66 66 68 67 66 64 66 66 65 64 61 59 60 61 61 61 64 65 65 66 67
65 66 68 69 69 71 71 71 71 69 69 65 66 69 68 67 66 66 66 66 67 66 66 66 66 66 66 65 64 64 64 63 62 60 57 58 58 62 63 64 64 65 65
65 66 68 69 69 71 71 71 70 69 66 64 65 66 64 63 63 65 65 67 67 66 65 65 65 66 66 66 65 64 63 61 61 61 59 59 58 59 62 63 63 62 62

GFSSE_sfc_dewp_009.txt.gz
Dewpoint
70 73 74 74 74 74 73 74 73 74 75 76 76 77 76 76 76 76 76 75 76 75 75 74 75 74 74 74 73 73 73 72 72 72 72 72 72 71 71 70 70 66 71
71 72 75 75 74 74 74 74 74 74 75 76 76 77 76 75 75 76 75 75 76 75 74 74 74 74 73 72 72 72 72 72 71 72 72 71 71 71 71 71 68 67 71
70 71 73 75 75 74 74 74 75 75 75 76 77 76 75 74 75 75 75 75 75 74 74 74 74 74 73 73 72 71 71 71 71 72 73 68 69 71 71 71 71 69 71
70 71 71 75 75 75 75 75 75 75 75 76 77 76 75 75 75 75 75 74 74 74 74 73 73 73 73 73 73 73 72 70 71 71 69 68 66 71 70 71 71 72 71
71 71 72 75 75 75 75 75 75 76 75 75 75 76 75 75 75 75 74 74 74 74 73 73 72 72 72 72 73 73 72 71 70 70 71 71 68 69 70 70 70 71 70
71 71 74 76 76 75 75 75 76 76 76 77 76 75 75 75 74 74 73 73 73 73 73 72 72 72 73 73 73 73 73 71 71 70 71 72 70 71 70 67 70 69 71
70 72 73 76 76 76 76 76 77 77 76 77 76 75 75 74 74 73 73 73 73 73 72 72 72 73 73 73 74 73 73 72 71 70 70 72 71 70 71 69 70 69 70
70 71 73 75 76 76 76 76 77 77 76 76 75 75 75 74 74 74 73 72 72 71 72 73 73 73 73 74 74 73 72 72 70 70 71 71 72 71 72 71 70 71 71
70 71 73 74 75 77 77 76 76 76 76 76 76 75 75 75 74 74 73 72 72 72 73 73 73 73 73 73 73 72 73 72 71 71 69 72 73 72 71 72 70 71 71
71 72 73 74 74 75 74 76 75 76 76 75 75 75 75 75 74 74 74 73 73 73 73 74 73 72 73 73 72 71 72 71 69 72 71 72 71 73 72 72 71 71 70
71 73 73 72 75 76 75 74 75 75 75 75 74 75 74 74 73 71 73 73 73 72 73 73 72 73 73 72 72 72 71 69 70 70 73 73 72 72 72 72 71 73 70
69 71 73 74 74 74 71 75 75 73 71 72 74 74 73 74 75 73 70 72 71 71 72 73 73 72 70 69 69 70 68 70 69 70 69 73 73 72 72 73 72 72 72
69 70 72 74 75 75 75 74 76 74 74 73 74 74 75 74 74 72 71 70 70 72 70 71 71 70 71 71 69 69 69 70 69 69 70 71 73 72 72 73 73 73 71
69 70 71 73 75 75 76 73 74 72 73 71 73 75 76 76 72 73 71 72 74 72 72 72 71 72 71 71 69 69 69 68 68 68 70 71 73 73 72 72 73 73 71
68 70 72 73 75 75 75 73 73 74 71 71 73 74 73 76 73 73 73 73 74 73 72 73 73 72 71 69 69 69 68 69 69 67 68 71 72 73 73 73 72 73 72
68 70 72 73 75 75 75 76 75 74 75 73 73 73 75 73 77 76 72 73 72 73 72 73 72 71 69 69 68 68 67 66 68 69 66 69 71 72 73 73 73 73 73
69 69 70 72 74 75 76 77 75 74 73 72 72 75 75 75 76 75 76 75 73 73 73 72 71 71 69 68 67 66 66 67 65 68 68 67 69 71 72 72 75 75 74
70 70 71 69 71 73 74 75 73 74 73 73 78 78 75 75 75 76 77 75 74 73 71 71 70 69 69 67 66 66 66 66 67 67 67 67 67 66 70 71 72 75 73
71 72 72 73 73 75 76 75 76 76 75 77 74 74 75 75 75 76 76 75 73 72 74 72 70 70 66 65 64 65 65 65 66 64 67 68 68 68 66 72 71 72 72
71 72 73 73 75 76 77 77 77 77 77 77 73 73 75 75 74 74 74 74 73 72 71 71 71 70 68 67 65 64 65 66 65 65 66 64 64 68 69 71 71 70 72
71 71 73 73 75 75 73 74 74 72 74 73 76 75 74 74 74 75 75 73 73 71 71 71 70 69 66 69 66 61 64 65 64 64 64 62 60 62 65 68 69 70 70
69 71 73 74 75 75 74 74 73 73 73 73 74 75 75 74 75 74 73 72 72 69 71 70 70 67 67 69 65 64 58 61 63 62 62 57 59 59 60 64 66 68 68
68 70 72 74 75 75 76 75 75 75 75 73 73 73 73 74 74 74 73 71 71 69 65 70 69 69 65 68 68 64 58 56 59 63 63 58 59 57 59 61 64 65 64
67 69 72 73 75 75 76 75 75 72 71 71 72 72 73 74 73 73 73 71 71 67 69 69 69 69 69 64 66 68 67 65 58 55 57 57 55 54 59 56 57 59 59
67 68 70 73 75 75 76 76 73 73 72 72 71 73 75 74 73 71 71 70 69 68 70 69 70 69 68 66 65 64 65 64 65 57 50 51 54 55 55 56 57 55 57
66 67 69 73 74 74 75 75 75 74 73 71 70 68 69 71 70 70 68 69 70 69 69 67 69 68 68 68 67 65 61 57 56 57 55 56 55 55 55 54 55 56 55

GFSSE_sfc_dewp_015.txt.gz
Dewpoint
71 72 74 74 74 74 73 74 75 76 77 77 78 77 77 76 77 77 77 75 75 75 74 74 74 73 73 73 73 73 72 72 73 72 72 72 72 72 69 69 70 65 72
71 71 75 74 75 74 74 74 74 76 77 77 77 77 76 76 76 76 76 75 75 75 74 74 74 73 73 73 73 72 72 72 72 71 71 72 72 70 69 70 70 69 71
67 70 72 74 74 74 74 75 75 75 76 76 76 76 75 75 76 75 75 75 75 74 74 73 73 73 73 73 73 72 72 71 69 71 70 70 68 70 71 70 71 71 72
65 67 69 75 74 74 74 74 75 74 74 74 75 74 74 75 75 74 74 74 74 74 73 73 72 73 73 73 73 72 72 71 69 70 69 63 64 70 71 71 72 72 72
66 67 71 75 74 74 75 74 75 74 74 74 74 74 74 74 74 74 74 74 73 73 72 72 73 73 73 73 73 73 72 71 69 70 69 65 67 69 70 70 71 71 70
65 67 73 75 74 74 75 75 75 75 75 74 74 74 74 74 73 73 73 73 73 72 72 73 73 73 73 73 73 72 71 71 70 72 72 65 66 70 70 70 72 72 71
66 67 69 75 75 75 75 76 76 75 75 74 74 74 74 74 73 73 73 72 72 72 72 73 73 73 73 73 72 71 71 72 71 72 69 71 68 71 70 70 70 72 72
67 66 70 75 75 75 75 76 75 75 74 75 74 74 74 73 73 73 71 71 71 71 72 73 72 72 72 72 71 71 71 72 70 71 72 71 72 72 71 71 70 69 72
66 67 70 71 75 76 76 75 75 75 75 74 74 74 74 73 73 72 72 71 71 72 73 73 72 72 72 71 71 70 72 72 70 70 70 73 74 72 72 71 72 71 71
67 66 69 70 70 72 73 75 75 75 74 73 74 74 74 74 74 73 72 72 71 71 71 72 71 71 71 72 71 71 72 73 70 70 70 70 74 72 72 72 72 72 72
66 67 66 66 69 73 72 74 75 75 73 73 73 74 73 70 72 72 73 72 71 71 71 71 71 72 72 72 72 72 73 71 66 67 70 73 73 73 72 73 71 71 72
65 66 66 69 68 69 65 73 72 69 68 69 69 72 68 72 72 69 71 72 71 72 72 72 73 73 73 71 71 72 65 65 68 70 70 74 73 73 73 73 72 73 71
66 65 67 71 73 68 71 68 68 68 67 68 70 70 69 69 71 71 73 71 71 72 71 72 71 71 70 66 65 64 63 64 60 70 73 74 72 71 72 73 74 73 73
65 64 64 68 70 69 70 67 66 65 65 65 68 72 72 69 71 70 74 72 73 73 70 73 70 72 68 68 66 66 64 62 60 61 72 74 71 72 73 73 74 73 73
62 64 65 68 72 72 72 67 70 66 65 65 66 70 69 68 73 70 70 69 71 70 71 70 73 70 71 70 69 66 64 63 62 60 62 74 72 71 73 73 74 73 74
63 64 65 68 72 72 72 74 70 70 70 65 71 67 72 70 75 75 74 68 68 73 73 72 71 72 73 72 70 66 62 60 60 60 58 68 74 72 73 73 73 73 73
64 65 66 68 70 72 73 73 71 68 66 70 68 70 72 73 73 74 71 69 72 72 73 72 72 71 70 68 62 60 58 59 58 61 60 58 68 74 74 73 74 74 74
64 66 68 65 68 71 73 72 70 68 73 72 69 73 72 74 74 74 70 69 73 72 72 73 69 73 65 60 58 57 58 59 62 62 60 61 58 58 72 74 72 73 73
65 67 68 69 68 70 75 72 72 74 73 70 71 68 75 73 74 73 71 70 72 70 73 70 70 67 61 59 56 54 58 60 61 58 61 61 63 62 60 74 74 72 72
65 67 69 69 72 74 77 76 75 70 70 69 68 72 73 72 73 73 70 72 72 74 71 74 69 65 63 61 56 55 59 61 61 60 60 58 61 62 64 65 69 69 72
65 68 70 72 76 73 71 73 71 69 70 67 67 72 74 74 74 74 72 74 72 70 72 68 65 64 59 62 60 58 59 61 61 60 59 56 58 59 62 64 68 70 71
65 69 73 74 77 76 72 73 73 71 66 67 67 72 72 72 74 73 75 70 73 67 70 67 66 61 58 63 59 56 54 62 62 57 58 56 57 56 59 63 65 69 71
65 69 73 76 77 77 77 74 74 76 71 68 66 69 71 72 72 74 73 73 72 69 61 67 65 65 59 61 64 59 54 55 57 62 60 56 57 55 56 60 61 61 64
64 68 73 76 78 77 78 74 77 70 66 63 65 65 68 70 70 72 72 70 70 65 70 66 63 66 65 60 59 60 64 62 56 56 59 56 54 54 56 54 55 57 58
63 65 70 76 78 78 78 77 72 73 65 64 63 72 74 74 70 68 70 70 69 63 68 68 66 67 64 61 58 58 62 58 60 54 50 54 54 53 54 53 53 52 57
62 64 69 76 78 79 78 78 78 77 73 66 68 67 65 65 67 70 69 70 69 68 67 66 67 66 67 66 62 61 55 54 54 53 51 55 53 54 53 54 54 53 53

GFSSE_sfc_dewp_021.txt.gz
Dewpoint
70 72 74 73 73 74 75 77 78 78 78 78 78 78 78 77 77 77 77 76 76 76 75 74 74 73 73 73 73 72 73 72 72 72 72 71 70 71 71 70 72 70 71
71 72 74 74 74 75 77 77 78 78 78 78 78 78 77 77 76 77 77 76 75 76 74 74 74 73 73 73 72 72 73 73 72 72 72 70 70 71 72 72 72 70 71
70 72 72 75 75 75 76 77 77 77 78 78 78 78 77 76 76 76 75 75 75 74 73 73 73 73 73 73 72 71 72 71 71 70 71 70 70 71 71 72 73 72 72
70 70 72 75 76 75 76 77 77 76 76 77 77 77 77 76 76 75 74 74 74 74 73 73 73 73 73 73 73 72 72 71 70 71 72 69 68 70 72 73 72 72 71
69 70 72 76 76 76 76 77 77 76 76 76 77 77 77 76 75 74 74 74 73 73 73 73 73 73 73 73 73 72 72 71 72 71 69 65 68 71 72 72 72 72 73
70 72 75 76 75 76 76 76 76 76 76 76 77 77 76 76 74 74 73 73 73 73 73 73 73 73 73 73 72 72 72 72 72 71 68 69 69 72 72 72 72 73 72
70 72 74 77 77 77 76 76 76 75 75 76 77 77 76 76 74 73 72 72 72 72 73 73 72 72 72 72 72 71 71 72 71 72 72 69 71 73 73 73 72 72 73
70 72 73 76 76 77 76 76 76 75 75 76 77 76 76 76 75 74 72 72 71 72 73 72 72 72 71 71 72 72 72 72 71 72 72 71 73 73 71 72 72 73 73
68 70 72 73 74 76 77 76 76 76 76 76 76 76 76 75 74 74 74 72 71 72 72 72 71 72 73 72 73 74 73 73 69 70 71 71 74 72 69 71 72 72 73
69 70 71 73 73 74 74 75 75 76 75 75 75 74 74 73 73 73 75 74 72 71 71 72 73 74 74 75 75 72 73 72 67 69 71 70 73 72 72 71 72 71 72
68 69 71 72 73 73 73 74 76 75 75 75 74 75 75 73 72 73 74 74 72 72 72 73 75 75 75 76 74 74 73 69 68 66 71 73 74 73 72 73 72 72 72
67 69 70 71 72 72 72 73 74 73 72 72 72 72 73 72 72 73 74 75 72 73 74 74 75 75 74 72 73 73 72 68 69 69 68 71 75 74 73 72 72 73 73
66 68 69 70 71 71 70 72 73 72 71 70 70 72 72 73 72 72 72 72 72 73 71 72 72 72 71 71 69 67 66 65 70 69 69 73 74 74 74 72 72 72 73
65 66 67 70 70 70 72 72 71 70 70 70 71 73 71 73 70 72 73 71 72 72 71 72 71 70 70 68 67 65 65 68 71 71 70 74 74 75 74 74 73 73 72
65 65 68 69 70 72 70 69 69 69 70 70 71 72 70 71 70 71 72 72 72 71 71 70 72 70 70 70 69 67 64 59 63 70 71 75 74 75 74 74 74 73 74
65 66 68 69 71 71 70 71 71 70 70 70 72 71 71 71 71 73 71 70 71 71 72 72 70 70 70 71 70 69 67 61 61 63 71 72 74 74 75 74 74 74 74
64 66 69 69 72 71 70 72 72 71 67 66 72 72 72 72 71 72 72 70 73 72 72 72 70 71 70 70 68 68 64 60 62 61 64 70 72 73 74 75 75 75 74
64 67 69 69 70 72 71 73 71 70 71 70 69 72 73 73 73 72 72 72 71 72 70 70 70 70 69 68 62 60 60 59 61 61 61 65 70 69 73 74 74 74 74
66 68 68 68 69 70 72 74 71 70 72 69 72 72 72 74 73 72 72 72 72 72 71 71 69 68 64 61 60 58 61 63 61 61 62 60 63 68 70 73 74 74 72
67 68 67 69 69 69 73 73 73 72 72 72 72 70 71 73 74 73 72 72 72 70 71 69 68 67 63 62 61 60 62 61 61 63 62 61 61 68 70 69 71 71 74
68 67 68 69 71 70 72 72 72 70 72 70 71 72 73 73 73 73 71 72 72 71 70 68 66 61 62 64 61 61 63 62 60 61 60 58 57 64 67 69 70 71 72
66 67 68 69 74 71 72 72 71 71 72 71 72 73 73 73 74 72 72 72 71 71 69 65 63 62 63 65 60 60 59 60 62 60 58 56 58 60 65 67 68 69 70
65 68 68 69 73 73 72 73 73 73 72 70 70 72 73 74 74 72 72 72 72 69 67 64 63 63 61 65 59 60 58 57 61 61 57 56 58 59 61 60 60 64 69
65 69 69 70 73 72 73 71 70 69 69 70 71 72 73 74 73 73 72 72 70 69 67 65 65 63 63 60 64 63 61 58 57 56 59 57 56 54 55 60 57 57 68
65 67 70 71 71 72 73 71 71 70 69 70 69 70 73 72 72 73 72 72 68 67 68 66 64 62 65 65 64 64 61 61 58 56 55 56 59 57 55 56 58 57 62
64 67 71 71 71 73 71 72 72 71 70 69 70 72 72 72 70 72 72 70 67 64 67 65 65 64 63 65 63 64 59 58 58 58 55 54 55 56 59 58 55 58 57

GFSSE_sfc_dewp_024.txt.gz
Dewpoint
69 72 73 73 73 75 76 77 77 78 78 78 78 77 77 76 76 76 76 75 75 74 74 74 73 73 73 73 73 73 73 73 72 72 70 69 71 71 72 72 73 69 70
70 72 74 74 74 76 76 77 78 78 77 78 77 77 76 75 75 75 75 75 74 74 74 74 73 73 73 73 73 73 73 73 73 72 70 69 71 71 72 73 72 68 72
70 72 73 75 75 76 77 77 77 77 77 77 77 76 75 75 75 75 75 74 74 73 73 73 73 73 73 73 72 72 71 71 72 71 70 70 69 72 73 72 71 71 72
71 72 72 75 75 76 77 77 77 76 76 77 77 76 75 75 75 75 74 74 73 73 73 73 73 73 73 73 73 72 72 71 71 71 71 70 66 71 72 72 71 71 71
70 72 72 75 76 76 77 77 77 76 75 76 76 75 75 75 74 74 73 73 73 73 73 73 72 72 72 72 72 72 71 72 72 72 71 68 68 72 73 72 71 72 72
70 72 74 75 75 76 76 76 75 75 75 76 76 75 75 75 74 73 73 73 73 73 73 73 72 72 72 72 72 72 73 73 71 69 67 70 69 72 71 73 72 72 72
71 72 73 76 76 76 76 75 75 75 75 76 76 75 74 74 73 73 73 73 73 73 73 71 71 71 72 72 72 72 73 73 70 70 70 70 71 74 73 72 72 72 70
72 73 73 75 76 76 75 75 75 74 75 76 75 75 75 74 73 73 72 72 72 72 72 72 71 72 72 72 73 74 74 72 71 70 72 70 73 74 73 73 72 72 70
72 73 73 73 73 75 76 75 75 74 75 75 75 75 75 74 73 72 72 71 71 72 72 72 71 71 72 72 73 74 71 69 69 72 72 70 74 72 72 72 72 72 71
71 72 73 73 74 74 75 75 75 75 75 75 75 75 74 74 73 73 75 74 72 71 71 71 72 73 72 72 73 74 71 70 69 70 71 71 72 70 70 72 72 72 72
69 72 73 73 73 74 74 74 75 75 75 75 75 75 76 73 72 73 74 74 74 72 71 71 73 74 73 73 70 72 74 67 68 69 71 72 72 72 72 71 72 71 72
69 70 72 73 73 73 73 73 73 73 73 73 73 72 73 72 72 73 74 75 74 73 73 73 73 74 73 71 72 74 70 66 68 66 69 72 73 73 72 73 72 72 72
69 70 71 72 72 72 71 73 73 73 72 71 71 71 72 73 72 73 71 73 72 73 71 71 72 71 71 70 68 66 70 65 69 70 67 71 73 73 73 72 73 73 73
68 69 70 71 71 71 71 73 72 72 71 70 70 70 71 72 69 70 71 72 71 71 71 72 71 70 70 69 67 65 67 65 69 69 69 73 74 74 73 73 72 73 73
67 68 69 71 71 71 71 71 71 71 70 69 69 71 71 71 69 70 71 72 72 70 71 70 71 70 70 70 69 66 64 68 70 70 69 72 75 75 74 73 73 73 72
66 67 69 70 71 70 71 70 69 69 70 69 70 71 71 72 70 71 70 70 72 71 72 72 70 69 70 70 70 69 66 62 68 69 70 72 74 75 75 75 74 73 73
65 66 68 69 70 70 69 69 69 69 70 69 70 71 71 71 71 72 71 69 71 71 73 72 69 69 70 69 67 66 63 60 62 67 70 70 71 74 75 75 74 74 73
65 66 67 68 69 70 69 70 71 70 68 69 71 72 72 72 71 71 71 71 70 71 69 69 69 68 65 61 59 58 60 58 61 61 66 68 70 69 73 74 75 75 72
65 66 68 67 68 71 70 72 70 69 71 69 70 72 72 73 73 71 71 71 71 72 70 70 68 67 62 60 59 60 61 62 61 61 62 65 68 69 69 73 73 74 72
65 68 68 67 69 71 71 72 71 69 71 71 71 71 73 73 73 71 71 72 71 70 70 68 67 67 62 63 62 60 61 61 62 60 62 60 65 68 70 69 70 71 72
65 68 68 68 69 69 72 71 71 69 71 71 71 70 70 73 73 71 71 72 71 69 69 67 64 60 59 63 59 59 62 61 60 61 58 58 65 67 69 69 70 71 72
67 68 68 68 68 68 70 70 70 71 71 71 71 72 71 72 73 72 71 71 71 71 69 65 61 61 62 64 58 59 58 58 60 58 57 60 62 67 67 68 68 69 69
66 67 67 69 69 68 69 71 71 71 71 70 71 72 73 72 73 72 71 71 71 70 67 63 63 60 60 63 59 59 57 56 60 60 56 58 59 61 63 64 67 69 67
64 67 67 69 70 70 71 71 70 69 68 69 69 71 72 73 73 72 72 71 68 69 64 63 65 64 60 58 62 62 59 57 57 57 58 57 56 56 60 59 59 68 66
63 66 66 69 72 71 71 70 69 68 68 69 70 71 71 73 72 72 72 71 68 67 65 64 63 64 64 62 62 63 60 61 56 55 54 55 57 56 55 57 57 62 66
62 65 66 67 71 72 71 70 69 68 68 68 69 69 72 72 72 72 72 71 67 66 66 64 62 63 64 64 63 62 58 56 57 57 54 54 54 56 57 56 58 57 64

GFSSE_sfc_dewp_027.txt.gz
Dewpoint
70 72 73 73 73 74 75 76 77 77 77 77 77 76 75 75 75 75 75 74 74 74 73 73 74 73 72 73 73 73 73 72 71 70 69 72 71 73 72 72 71 68 72
70 71 73 73 75 75 75 77 77 77 77 76 76 75 75 75 75 75 75 74 74 74 73 73 73 73 73 73 73 73 73 72 71 70 69 71 71 72 73 72 70 68 71
70 72 73 75 75 75 75 77 77 76 76 76 75 75 75 75 75 74 74 74 73 73 73 73 73 73 73 72 72 72 72 71 71 70 71 70 70 73 73 71 71 72 72
71 72 73 75 75 75 75 77 76 76 76 75 75 75 75 75 75 74 74 73 73 73 73 73 73 73 73 72 72 72 72 72 71 71 70 69 69 72 72 71 71 72 72
71 72 72 75 75 75 75 76 76 76 75 75 75 75 75 75 74 73 73 73 73 73 73 73 73 72 73 72 71 70 71 72 72 71 69 68 69 71 73 71 71 72 72
71 72 73 75 75 75 75 75 75 75 75 75 74 75 75 74 73 73 73 73 73 73 73 73 72 72 73 72 71 70 73 72 73 70 67 71 70 72 72 71 73 72 73
71 72 73 75 76 75 75 75 74 74 75 75 75 74 74 73 73 73 72 72 72 73 73 72 73 72 72 72 71 71 73 71 69 70 70 70 70 73 72 72 72 72 73
71 72 73 75 75 75 75 75 74 74 75 75 75 74 74 74 73 72 72 72 72 72 72 72 72 72 71 71 73 73 73 72 70 70 71 71 73 73 73 72 72 70 72
72 73 73 72 73 75 75 75 74 74 75 75 75 74 74 74 73 72 72 71 71 71 72 72 71 71 71 72 72 73 73 72 70 71 71 71 74 73 72 72 72 71 71
73 73 73 72 72 73 73 75 74 74 74 75 75 75 74 74 73 72 74 73 72 71 71 71 71 71 71 73 72 73 71 69 69 70 71 70 74 72 71 72 72 72 70
71 72 73 73 73 74 74 73 74 74 74 75 75 74 75 73 72 73 73 73 73 72 71 71 71 72 73 73 71 73 72 68 67 69 71 71 73 70 71 72 72 72 72
69 72 73 73 73 74 74 73 73 73 73 73 74 73 74 72 72 73 74 74 72 72 73 73 72 72 72 72 72 73 72 66 67 67 68 72 73 72 71 71 72 71 72
69 71 72 72 73 73 73 72 73 73 73 72 72 72 72 72 71 73 72 73 72 73 71 71 71 70 71 70 67 67 69 64 66 66 67 71 73 73 72 72 72 72 72
68 69 71 72 73 72 71 73 73 72 72 71 70 70 71 71 71 70 71 71 70 71 71 71 71 70 69 69 67 67 69 64 66 69 68 71 73 73 72 72 72 72 72
68 69 70 71 72 72 71 72 71 71 71 70 69 69 71 70 69 70 70 71 71 70 71 70 71 70 69 70 69 65 67 66 67 69 68 72 73 74 73 72 72 72 73
68 69 70 70 71 71 70 70 70 71 71 70 69 69 71 71 71 70 70 71 71 71 72 72 70 69 69 70 69 68 64 66 69 70 69 69 73 73 75 73 72 72 72
67 69 69 70 70 70 70 70 69 69 70 69 69 70 71 71 70 70 70 69 71 71 72 72 69 69 68 65 61 60 61 64 64 69 69 69 71 73 73 75 75 74 71
67 68 69 69 70 70 70 70 69 69 69 69 70 71 71 71 70 71 70 70 70 71 71 69 68 67 63 60 58 59 60 59 62 66 69 69 70 69 71 73 75 74 72
66 67 68 69 69 70 70 69 70 70 69 69 70 71 71 71 71 71 71 71 71 70 70 69 67 66 61 60 59 60 61 62 62 61 64 64 69 69 68 71 73 73 71
65 66 67 68 68 70 69 69 70 69 70 69 70 71 71 72 73 71 70 71 71 70 69 68 66 66 61 62 62 59 61 60 62 62 61 62 64 68 69 68 69 70 72
65 66 67 67 68 69 69 70 69 68 69 71 71 71 71 72 73 71 70 71 71 69 69 67 64 60 59 63 57 57 61 61 61 59 58 62 67 68 68 68 69 70 71
64 66 67 67 67 68 69 69 70 69 69 70 71 70 70 72 72 71 70 71 70 69 68 66 62 60 61 63 57 59 57 57 59 57 60 64 66 68 67 68 68 69 68
62 65 67 67 67 68 69 70 70 71 70 70 70 70 71 70 72 72 71 70 70 69 68 64 62 60 59 62 59 59 57 55 59 60 56 59 64 65 66 67 67 68 66
63 65 67 67 67 68 69 69 68 68 67 69 69 70 72 73 72 72 71 71 70 70 67 63 63 61 59 60 62 61 58 59 57 55 57 56 56 60 61 61 66 68 65
63 65 67 67 68 68 68 68 68 67 68 69 69 69 70 72 72 72 71 70 69 69 66 63 63 64 60 59 61 61 59 60 56 56 53 54 56 56 57 58 58 66 66
63 66 67 67 68 68 68 68 68 68 68 68 68 69 70 71 72 72 71 70 68 67 65 64 63 63 64 63 62 62 57 55 56 56 54 54 54 55 56 54 57 57 66

GFSSE_sfc_dewp_030.txt.gz
Dewpoint
71 72 73 73 74 74 75 76 77 77 77 77 77 76 75 76 75 74 74 74 74 74 74 74 73 72 73 72 73 72 72 71 70 70 71 71 73 72 73 71 71 71 73
71 72 74 73 75 75 75 77 77 77 77 76 76 76 75 74 75 75 74 74 74 74 73 74 73 72 72 72 73 73 72 72 70 69 71 72 72 72 72 70 70 70 73
69 72 72 75 75 75 77 77 76 76 75 76 76 75 74 74 74 74 74 74 73 73 74 73 73 73 72 72 72 72 72 71 71 70 72 70 70 72 72 70 72 71 72
70 72 72 75 76 76 76 76 76 75 75 75 75 75 75 74 74 74 73 73 73 73 73 73 73 73 72 71 71 71 72 71 71 70 71 69 70 72 71 72 72 72 72
71 72 73 75 76 75 75 75 76 75 75 75 75 75 75 74 74 73 73 73 73 73 73 73 73 73 72 71 70 70 72 72 72 70 69 69 71 72 71 71 71 72 72
71 72 74 75 75 75 75 76 76 75 75 75 75 75 74 74 73 73 73 73 73 74 73 73 73 73 72 71 70 71 72 71 73 70 69 72 71 72 70 72 73 73 73
71 72 73 76 76 76 75 75 75 75 75 74 75 74 74 73 73 72 72 72 73 73 73 73 72 72 71 71 70 72 72 72 71 70 71 71 71 73 72 73 72 73 73
71 72 73 75 75 75 74 74 74 75 75 74 74 74 74 73 72 72 71 71 72 73 73 72 72 72 70 70 72 72 72 70 70 71 71 72 73 73 72 72 71 72 73
71 72 73 72 74 75 74 74 74 74 75 75 74 74 74 73 72 72 71 72 72 72 72 72 71 71 71 71 72 72 73 72 70 72 71 72 74 73 72 71 71 70 72
72 72 72 72 72 73 73 74 74 74 75 75 74 74 73 73 72 72 74 72 72 72 71 71 71 71 71 71 72 72 71 71 70 71 71 72 74 72 72 72 72 70 71
72 72 72 72 72 73 73 73 74 74 74 74 74 74 73 73 73 73 74 74 73 72 71 71 71 72 72 72 71 72 71 69 69 70 71 71 73 71 71 72 72 71 71
70 72 72 72 72 73 74 74 73 73 73 73 74 74 74 74 73 73 74 74 72 72 71 72 72 72 72 73 73 72 73 67 68 69 70 71 73 70 71 72 72 72 72
69 71 72 72 73 73 74 73 73 73 73 73 74 73 73 74 73 73 73 73 73 72 73 71 72 71 72 70 69 69 71 65 66 66 66 72 72 72 71 71 72 71 72
69 70 72 73 73 73 72 73 73 72 72 72 72 72 71 72 71 72 72 72 72 71 72 73 72 72 70 71 68 69 70 65 66 68 67 71 73 72 72 72 72 72 72
68 70 72 72 73 73 71 72 72 72 72 72 71 70 71 72 71 71 71 72 72 72 72 72 72 71 70 71 69 67 68 67 67 68 68 70 73 73 72 72 73 72 72
67 69 71 72 72 73 72 71 72 71 72 71 70 70 71 72 72 71 71 72 73 72 73 72 72 71 71 71 71 70 67 68 69 70 70 68 73 73 73 72 72 72 72
67 68 70 71 71 72 71 70 70 71 71 70 70 70 71 72 72 72 72 71 72 72 73 73 71 71 67 64 63 62 64 67 65 70 70 68 70 72 73 73 73 72 72
68 68 70 70 70 70 70 70 70 70 70 70 70 71 72 72 72 72 72 71 72 73 73 71 71 69 65 64 62 63 64 63 63 68 70 69 70 69 70 73 74 73 71
68 69 69 70 70 70 70 70 70 70 70 70 70 71 72 72 72 72 72 72 72 72 72 71 69 68 64 64 63 63 64 64 64 64 67 69 69 70 69 70 73 72 71
67 69 69 69 70 70 70 70 70 71 71 71 70 71 72 72 72 72 72 73 72 72 71 70 68 67 64 64 61 62 64 63 65 65 64 64 67 70 69 70 72 70 72
67 68 68 69 70 70 69 69 69 69 70 71 71 72 72 73 73 73 72 72 72 71 71 69 67 65 62 64 61 62 63 62 63 61 62 67 69 69 69 69 70 72 72
65 67 68 69 69 70 70 69 70 70 70 71 72 72 72 73 73 73 72 72 72 71 70 68 66 63 63 64 61 61 60 62 62 59 63 66 68 69 68 69 70 70 70
65 66 67 68 69 69 70 70 71 71 71 70 71 71 71 72 73 73 72 72 72 71 69 68 65 64 62 64 61 62 59 59 61 62 60 63 67 67 68 68 69 68 68
64 66 67 68 68 69 70 69 69 68 68 69 70 70 71 72 72 73 72 72 72 71 70 68 65 63 64 63 63 62 61 62 59 57 59 60 61 64 65 65 67 68 67
63 64 66 68 68 69 69 69 69 68 69 69 70 71 71 73 73 72 72 72 71 71 70 67 66 66 63 63 63 62 61 59 59 58 56 58 59 59 61 62 62 67 67
63 64 66 67 68 68 69 69 69 69 68 68 69 69 70 71 72 73 72 72 71 70 69 67 67 66 65 65 64 64 61 61 58 58 57 57 57 59 59 59 60 61 67

GFSSE_sfc_dewp_033.txt.gz
Dewpoint
71 73 74 74 74 74 76 76 77 78 78 77 76 75 75 75 75 74 74 74 74 74 74 73 73 73 72 73 72 72 71 71 70 71 72 72 72 72 71 72 72 68 73
71 73 73 74 74 75 76 76 77 77 77 76 76 76 75 74 75 74 74 74 74 73 73 73 73 72 72 73 72 72 72 71 69 71 71 72 72 72 71 71 70 71 73
70 71 71 75 75 75 76 77 77 76 76 76 76 75 74 75 74 74 74 73 73 73 73 73 73 73 72 72 72 72 71 71 69 71 71 68 68 72 70 70 71 73 73
68 69 71 75 76 76 77 77 77 75 75 75 75 75 74 74 74 74 73 73 74 73 73 73 73 73 72 71 71 71 72 71 70 71 68 68 67 71 72 72 72 72 72
68 69 73 75 76 76 76 76 76 76 75 75 75 75 74 74 73 73 73 73 74 74 73 73 73 73 72 71 70 70 71 72 71 68 69 71 68 70 72 72 72 73 71
68 69 74 76 75 76 76 76 75 75 75 75 75 74 74 73 73 73 73 74 74 73 73 73 73 72 71 71 70 71 71 72 72 67 67 71 71 71 71 72 72 73 72
67 70 71 76 76 76 75 75 75 75 75 75 75 74 74 73 73 73 73 73 74 73 73 72 72 72 72 71 71 71 72 72 71 68 69 70 71 72 72 73 73 73 73
67 69 70 75 76 75 75 75 75 75 75 75 75 74 73 73 73 72 72 73 73 73 72 72 72 71 71 72 72 72 71 70 69 68 69 70 72 72 73 72 73 73 73
68 69 70 70 73 75 75 74 75 75 75 74 74 74 73 73 72 72 72 72 72 72 71 71 71 71 71 72 72 73 73 71 69 68 66 69 72 72 73 71 72 73 72
69 69 71 69 70 72 72 74 74 74 75 74 74 74 73 73 72 72 72 72 72 71 71 71 71 71 71 71 72 73 71 71 69 69 68 69 73 73 71 71 69 72 71
69 69 69 69 72 74 73 72 73 74 74 74 74 73 73 73 73 72 73 74 72 71 71 71 71 71 72 72 71 72 72 67 67 69 67 71 72 72 72 72 71 72 69
67 68 69 70 71 72 70 73 73 71 70 71 71 74 73 73 73 72 73 74 72 71 71 71 72 72 71 70 70 72 71 68 66 69 68 71 72 71 71 72 73 71 71
66 68 69 71 72 71 71 71 71 71 71 71 74 74 73 73 74 72 73 72 73 71 70 70 71 70 71 70 69 69 70 67 65 66 68 71 72 71 70 72 71 72 72
67 68 69 70 72 72 71 71 71 71 71 70 71 74 73 71 72 73 72 73 73 71 72 73 72 73 71 71 67 66 67 66 66 66 66 70 72 71 71 71 72 71 71
67 67 69 71 73 73 73 71 71 72 70 69 71 72 71 71 73 73 73 72 73 72 72 75 74 72 71 70 69 67 68 68 68 67 67 70 72 72 71 71 72 72 72
67 67 69 71 72 73 73 74 73 72 71 71 69 70 72 71 74 73 73 71 73 73 73 73 74 72 71 71 71 68 67 67 69 69 67 67 71 72 71 71 71 72 72
66 68 69 71 71 73 73 73 73 72 71 69 69 72 72 72 73 75 73 71 74 74 75 74 72 71 66 64 66 64 64 67 66 68 69 67 66 70 70 71 71 71 72
67 68 70 69 70 72 72 73 72 71 70 69 69 69 72 72 74 74 73 71 72 74 77 74 72 69 67 64 64 64 66 64 64 67 68 68 68 66 68 70 72 71 71
68 69 69 70 70 71 73 72 72 72 70 68 69 69 72 73 74 73 72 72 74 73 76 73 71 70 65 64 63 64 65 65 66 63 66 68 69 69 67 69 72 72 69
68 70 70 70 71 72 71 72 71 70 68 68 68 71 73 73 74 74 72 74 74 72 73 72 72 69 66 65 60 63 64 65 66 65 64 64 68 69 68 69 68 68 70
68 69 71 71 73 71 70 69 68 66 68 69 71 73 74 74 75 75 72 74 74 73 73 73 71 69 64 67 62 63 63 64 64 63 64 66 68 68 69 69 69 71 70
68 69 71 72 74 73 71 71 69 69 68 70 72 73 74 74 75 75 75 73 74 72 74 73 71 67 66 67 62 63 59 60 61 61 66 66 68 66 67 68 69 70 69
68 70 72 73 74 73 73 71 71 71 71 71 71 72 73 74 75 75 75 74 74 73 71 73 71 69 62 66 65 62 58 57 61 62 64 67 68 65 66 65 65 68 68
68 69 72 73 74 73 75 72 73 68 67 68 70 71 72 74 74 75 75 75 75 73 73 72 71 69 66 63 64 64 66 65 57 56 61 64 66 64 66 64 64 66 66
66 67 69 73 74 74 75 74 72 72 69 69 70 74 75 75 74 74 75 75 75 73 74 74 72 70 65 63 62 62 64 62 65 59 55 58 62 62 64 64 63 64 66
66 66 68 72 73 74 74 74 74 73 73 69 71 70 70 70 71 74 74 75 75 74 74 73 73 71 68 66 65 64 60 59 58 60 58 60 58 59 60 60 62 61 64

GFSSE_sfc_dewp_036.txt.gz
Dewpoint
71 73 73 73 73 75 75 77 77 77 77 76 75 75 75 75 74 74 74 74 73 73 73 73 73 73 73 72 72 71 71 70 71 72 73 72 71 72 73 72 72 67 73
71 73 72 73 74 75 75 76 77 77 76 76 75 76 75 74 74 74 74 74 73 73 73 73 73 73 73 72 72 72 71 70 71 71 72 72 73 71 70 70 72 71 73
70 71 71 75 75 76 76 77 77 76 75 76 75 75 75 74 74 74 73 73 74 73 73 73 73 72 72 72 72 71 71 70 71 70 70 67 68 70 69 71 73 73 73
70 71 71 75 76 76 76 77 77 75 75 75 75 75 74 74 74 73 73 74 74 73 73 73 73 72 71 71 71 71 72 71 71 70 68 64 64 70 71 71 72 73 73
68 68 72 75 76 76 76 76 76 75 75 75 75 75 74 74 73 73 74 73 74 73 73 73 73 72 71 71 70 70 71 71 69 69 67 71 64 70 71 72 72 72 70
67 68 73 75 75 76 75 75 75 75 75 75 75 74 74 73 73 73 74 74 73 73 73 73 72 72 71 71 71 71 70 72 71 63 66 69 68 71 72 71 72 72 71
65 67 71 76 76 76 76 75 75 75 75 75 74 74 73 73 73 73 73 74 73 73 72 72 72 72 72 71 71 72 72 72 68 64 67 70 68 72 72 72 72 72 72
64 64 69 75 76 76 75 75 75 75 75 75 74 74 73 73 73 73 73 73 73 72 72 72 71 71 72 72 72 72 71 69 67 64 66 68 72 72 73 73 73 73 72
63 63 67 69 73 75 75 75 75 75 75 75 74 74 73 73 72 72 72 72 71 72 71 71 72 72 72 72 73 72 71 69 68 64 64 66 73 72 72 73 73 73 73
63 63 66 68 68 71 71 75 75 75 74 74 74 74 73 73 72 72 72 72 71 71 71 71 71 72 72 72 73 72 72 70 67 66 63 69 73 72 71 70 72 71 72
63 63 64 64 68 70 70 71 74 74 74 74 73 73 73 71 70 70 72 73 71 70 70 71 71 71 72 73 73 72 73 63 65 66 66 73 72 72 71 71 71 71 70
63 62 63 64 66 68 66 71 71 68 68 68 70 71 70 72 72 71 72 73 71 71 71 71 71 72 72 67 67 73 65 64 64 65 66 72 72 71 71 72 71 72 69
63 62 63 66 69 68 68 68 67 67 67 69 72 72 72 72 72 70 70 69 70 71 70 69 69 68 68 68 63 58 61 63 60 61 68 71 71 70 70 71 72 71 71
64 64 64 66 69 69 67 67 66 65 65 65 67 73 73 70 71 73 70 70 71 70 70 69 68 69 69 68 62 59 59 60 58 59 68 71 71 70 70 71 72 72 71
64 65 66 68 71 71 71 67 66 66 65 64 67 70 70 70 73 71 71 70 70 70 68 68 70 68 68 66 63 62 59 60 62 60 64 72 72 71 70 71 71 71 72
64 65 66 68 71 71 71 72 69 68 66 66 65 67 72 70 74 73 71 69 70 70 70 69 69 68 69 67 67 64 60 60 64 64 60 67 71 71 70 71 72 72 72
64 66 66 68 70 71 72 72 70 67 66 65 65 70 72 73 74 75 70 69 69 72 72 71 73 72 67 65 65 65 58 61 61 64 61 62 66 71 70 70 71 72 73
65 67 68 66 68 71 71 71 69 67 67 65 64 67 71 72 74 75 71 70 71 71 70 70 72 66 66 63 63 61 60 59 63 62 60 62 63 63 69 71 70 70 70
65 67 68 69 68 70 72 71 71 71 68 65 65 66 71 72 73 74 70 71 75 73 70 71 68 68 64 63 60 61 62 62 62 57 62 64 65 64 63 70 71 71 70
66 67 69 69 71 72 71 72 69 67 67 65 65 67 71 72 73 74 71 72 71 71 69 69 71 68 64 61 55 58 61 63 62 60 59 59 63 66 64 67 67 68 69
66 68 70 71 73 71 70 69 67 65 65 64 66 70 73 73 75 76 72 74 74 71 72 73 70 70 63 63 59 58 60 61 62 59 61 59 61 62 62 64 66 65 67
66 68 71 72 73 73 70 71 67 66 63 64 67 71 74 74 75 75 76 72 74 72 74 74 73 66 65 63 60 60 57 56 57 59 63 60 61 58 59 62 63 67 66
65 68 71 73 74 74 74 70 70 67 66 65 67 70 73 74 75 76 76 75 74 74 70 73 72 70 63 62 65 60 56 57 54 58 63 60 62 60 59 61 62 66 65
65 67 71 73 75 74 75 72 74 66 64 64 68 69 70 74 74 75 76 76 77 72 73 73 71 71 70 61 61 61 65 65 54 54 58 61 61 60 62 59 60 62 63
64 66 69 73 76 77 76 75 71 72 65 65 66 74 76 75 75 73 75 76 76 74 74 75 74 74 68 62 60 60 63 59 63 57 54 57 60 59 60 60 60 59 62
63 66 68 74 76 76 75 75 77 75 73 67 70 68 69 69 70 74 74 76 76 75 75 75 75 74 72 68 61 62 58 57 56 57 56 58 57 59 58 59 60 59 60

GFSSE_sfc_dewp_042.txt.gz
Dewpoint
70 70 73 74 75 77 77 77 77 77 77 76 76 76 76 75 75 75 75 75 75 74 74 74 74 73 73 73 73 70 71 73 73 73 72 73 73 73 73 73 72 71 74
68 72 74 75 76 77 77 77 77 77 76 76 76 76 75 75 75 75 75 74 74 74 73 74 73 73 73 73 72 71 70 71 72 72 72 72 71 72 73 74 73 73 74
67 70 72 76 76 76 77 77 77 76 76 76 76 76 75 74 75 75 75 74 74 74 74 73 73 73 72 72 72 71 69 71 71 71 71 69 67 72 73 73 74 74 74
65 68 72 76 76 76 76 77 76 76 75 76 76 75 75 74 75 75 74 74 74 74 73 73 72 72 72 72 72 72 69 69 70 70 72 70 61 70 73 73 73 73 73
64 67 73 76 76 76 77 77 76 76 75 75 75 75 74 74 74 74 74 73 74 73 73 73 72 72 71 71 71 71 71 69 69 70 70 71 68 70 72 72 72 72 73
68 69 75 76 76 76 77 76 76 76 75 75 75 74 74 74 75 74 74 73 73 73 73 73 72 72 71 72 71 70 71 72 70 69 69 71 71 72 72 73 72 73 72
67 70 73 76 76 77 76 76 76 75 75 75 74 74 74 74 74 74 74 73 73 73 73 73 73 72 72 72 71 70 72 71 70 69 67 70 72 74 72 73 71 72 72
66 68 72 76 76 76 76 76 76 75 74 74 74 74 74 73 73 74 74 73 73 73 73 72 72 72 72 73 72 71 70 72 68 70 69 71 74 74 73 73 73 72 72
66 68 71 72 74 75 76 75 75 75 74 74 74 73 73 73 73 73 73 73 73 73 72 72 72 72 72 72 72 71 71 71 71 70 68 71 75 74 73 73 73 73 73
65 67 70 71 70 72 72 74 74 74 74 74 74 73 73 73 73 73 75 74 73 73 72 72 72 72 72 72 73 71 69 72 67 68 69 71 74 73 73 73 73 73 73
66 64 65 66 71 73 73 73 74 74 74 74 73 73 75 75 72 73 75 75 72 71 71 71 71 73 73 74 74 73 70 72 69 69 70 74 74 72 71 73 72 73 73
62 61 62 65 68 70 66 74 74 71 70 72 73 64 67 75 75 72 73 75 72 71 71 73 71 73 72 69 72 74 72 69 70 69 71 75 74 73 71 72 70 72 73
62 59 61 67 70 68 70 70 70 69 70 72 72 71 71 74 75 73 72 72 70 73 71 72 71 72 73 70 69 69 70 68 69 67 72 75 75 73 72 72 72 69 70
61 60 61 67 70 69 69 67 68 67 69 71 73 75 77 74 73 73 74 73 72 72 73 72 72 72 71 71 67 64 60 63 65 67 72 74 74 73 72 72 72 72 70
61 60 63 68 72 74 74 68 68 71 68 70 73 75 75 73 74 73 75 73 73 73 72 73 72 71 66 69 68 67 61 64 65 64 69 73 74 73 73 73 72 72 72
61 61 65 68 72 75 75 78 71 74 69 71 70 73 75 74 75 76 74 73 74 72 73 73 74 73 72 69 66 68 62 65 67 67 68 72 74 73 74 73 72 72 72
61 62 66 68 70 74 75 76 75 73 66 69 71 75 75 77 77 78 75 74 72 76 75 73 74 71 69 69 67 66 67 65 62 67 66 67 72 74 74 74 74 74 72
61 65 67 62 68 71 73 75 74 70 71 71 71 73 75 77 77 76 72 74 74 76 75 75 70 73 71 70 67 68 65 66 66 66 65 66 68 67 73 74 74 74 73
63 67 68 68 69 71 74 73 73 73 73 72 72 73 76 76 77 77 74 73 74 76 73 73 71 72 70 66 61 67 67 62 61 61 65 66 69 66 68 74 74 74 72
65 69 69 69 73 73 72 74 72 70 72 72 73 73 76 76 76 77 74 73 76 72 75 74 73 70 70 66 58 63 65 63 63 64 64 63 69 69 67 69 72 71 73
65 69 70 71 74 73 72 71 71 69 71 72 73 74 77 76 77 77 77 74 76 74 73 76 71 72 70 67 67 66 67 66 67 65 63 62 67 64 67 70 69 70 70
64 68 71 72 74 74 72 72 72 73 70 70 72 75 75 76 77 78 76 77 76 75 75 73 74 73 69 69 67 63 62 65 64 61 65 65 64 66 65 65 69 71 69
65 68 71 72 75 74 74 74 75 74 74 71 70 70 73 76 77 77 77 77 76 78 76 76 73 73 67 67 70 64 63 62 62 65 65 63 64 64 63 66 66 70 69
64 68 71 73 73 75 75 73 74 69 68 68 70 70 72 74 75 76 77 76 78 77 75 76 75 75 73 68 66 67 70 70 66 61 65 65 66 63 66 66 65 65 66
63 67 70 73 74 75 74 76 72 72 69 69 70 72 75 76 76 76 77 77 78 77 77 76 76 75 75 72 68 66 68 68 68 64 62 64 65 67 67 66 64 65 67
63 67 69 73 74 75 75 74 76 72 72 68 68 70 71 74 74 77 77 77 78 77 77 77 78 77 76 75 73 69 66 64 65 64 63 65 63 66 66 66 65 67 67

GFSSE_sfc_dewp_045.txt.gz
Dewpoint
70 72 75 75 75 75 76 76 76 76 76 77 76 76 75 75 75 76 76 75 75 75 74 74 73 73 73 73 71 71 73 73 73 73 73 74 74 74 73 73 74 72 74
70 72 76 76 77 76 76 77 77 76 76 76 76 75 76 75 75 75 75 74 74 75 74 74 73 73 73 73 72 70 72 72 73 73 72 73 73 74 75 73 74 73 74
70 72 75 77 77 77 76 77 76 76 75 75 76 76 75 74 75 75 74 74 74 74 73 73 73 73 73 72 72 71 71 72 72 72 72 68 71 73 74 74 74 74 74
70 72 74 77 77 76 77 77 76 75 75 75 76 76 75 75 75 74 74 75 74 74 73 73 73 73 72 72 72 72 70 72 72 72 71 70 69 73 74 74 73 74 73
69 73 74 77 77 76 76 76 77 76 75 75 76 75 75 76 75 74 74 74 74 74 73 73 72 72 72 71 71 71 71 70 71 71 71 69 67 72 72 73 73 73 73
71 73 76 76 76 76 76 76 75 75 75 75 75 75 75 75 74 74 74 74 73 73 73 73 73 72 72 72 70 70 71 70 71 70 70 71 70 73 73 73 73 73 74
72 74 74 77 77 77 76 75 76 75 75 75 75 74 75 75 75 74 74 74 74 73 73 73 73 73 73 72 70 70 71 71 70 71 71 71 72 74 73 72 72 72 73
71 73 74 76 77 77 75 75 76 75 75 75 75 74 74 74 74 76 74 73 73 73 73 73 73 73 73 72 71 71 72 72 69 70 71 72 74 74 73 73 72 72 73
70 72 73 74 74 75 76 75 75 75 75 75 74 74 74 73 73 74 74 74 73 73 73 73 72 73 73 72 71 72 71 72 70 70 71 72 75 74 73 73 73 73 73
70 72 72 73 72 73 73 75 75 75 75 75 74 74 73 72 72 73 75 75 73 73 72 72 72 73 73 72 72 71 70 73 68 68 70 73 75 74 74 73 73 73 73
69 70 71 71 71 72 72 73 75 75 75 75 74 74 73 73 72 72 73 74 73 72 72 72 74 75 74 72 72 71 71 70 70 69 71 74 74 73 73 73 73 73 73
66 67 68 69 70 71 70 72 73 73 73 72 73 65 67 70 73 73 73 75 73 73 74 74 72 73 72 69 72 73 71 68 69 70 72 75 74 71 72 72 73 73 73
64 65 65 68 69 69 70 72 72 71 71 72 71 70 66 73 73 73 71 71 63 68 71 71 70 70 70 70 69 72 71 68 68 69 73 75 75 73 72 71 70 72 73
61 61 64 67 68 68 69 70 70 70 70 70 72 70 66 72 67 71 72 70 70 71 71 72 71 70 70 70 69 68 68 68 66 70 74 75 75 73 73 73 71 69 70
61 59 63 66 67 68 68 67 67 68 69 70 72 72 73 71 70 73 73 72 71 71 71 72 71 69 65 63 64 63 65 64 66 68 71 75 75 74 73 72 72 72 71
60 59 64 66 68 68 69 69 66 69 66 70 71 72 72 73 72 72 72 72 72 71 68 71 70 69 68 68 65 62 63 64 65 68 70 72 75 74 74 73 72 72 72
60 62 64 65 69 69 69 69 70 70 65 67 71 72 72 71 72 72 73 72 71 72 69 71 70 69 66 67 63 60 63 65 66 67 68 71 73 74 75 74 74 74 73
61 64 65 64 68 70 69 70 70 69 69 67 70 71 71 72 73 71 71 72 72 73 73 70 71 68 66 68 63 62 62 63 65 65 66 68 70 69 74 75 74 74 73
61 65 65 65 67 70 70 71 70 69 70 70 71 71 71 72 73 72 71 70 66 73 72 70 68 69 67 67 62 63 61 60 62 65 64 66 68 69 70 75 75 74 73
62 64 64 66 66 68 71 72 70 69 70 70 69 71 73 73 74 74 72 70 70 72 72 71 66 64 63 62 58 61 61 60 61 63 64 66 67 66 68 71 71 72 73
63 65 64 68 69 68 71 70 70 68 69 69 68 73 73 73 73 74 72 71 72 71 69 71 66 66 65 63 63 62 61 61 61 60 63 67 66 66 68 69 70 69 71
64 64 66 68 70 68 70 68 69 69 69 68 68 72 73 73 74 74 73 73 72 72 71 71 68 67 64 64 63 60 57 59 59 60 63 64 66 66 66 68 68 68 69
64 65 67 68 71 70 70 70 70 70 70 69 68 67 72 72 73 74 73 73 71 73 71 70 68 68 61 64 65 57 58 57 59 61 58 62 63 61 63 67 68 67 69
64 66 66 69 72 70 71 70 68 67 66 68 67 68 71 73 74 74 74 73 73 73 72 71 70 68 64 59 60 65 65 64 58 55 61 59 61 59 61 64 66 67 66
63 67 68 68 71 71 71 69 70 68 68 67 68 67 70 71 72 75 74 73 73 73 72 71 72 70 67 66 60 61 62 64 63 59 57 58 62 62 63 62 63 64 63
64 66 69 69 70 71 71 72 69 69 67 67 65 66 70 72 73 74 74 74 74 74 73 72 72 70 70 70 67 63 59 57 60 60 60 60 58 63 63 63 62 63 63

GFSSE_sfc_dewp_048.txt.gz
Dewpoint
70 72 75 76 75 75 75 75 76 76 76 75 75 75 75 75 75 76 76 75 75 74 74 73 74 74 73 70 72 73 73 73 73 74 74 74 74 74 74 74 74 72 74
70 73 75 76 75 75 76 75 76 76 75 75 76 76 75 75 75 75 75 75 74 74 74 73 74 73 73 71 72 72 73 73 73 72 73 74 74 73 74 74 74 72 74
71 73 74 76 76 75 76 76 76 74 75 75 75 75 75 75 75 74 75 74 74 74 74 73 73 73 73 71 71 73 72 72 73 71 73 71 71 74 73 74 74 74 73
72 74 75 76 76 75 76 76 76 75 75 75 75 75 75 75 74 75 75 74 74 73 73 73 73 73 73 72 71 72 72 72 72 72 70 69 69 73 74 74 74 73 73
73 74 74 77 77 75 75 76 75 75 75 74 75 75 75 75 74 74 74 74 74 73 73 73 72 72 72 71 71 71 71 73 72 71 69 68 70 72 73 73 73 73 73
73 73 76 76 75 75 76 75 75 74 75 75 75 75 75 74 74 74 74 74 73 73 73 73 72 72 72 71 71 72 71 71 72 69 69 71 69 73 74 73 73 73 73
73 74 74 77 77 76 75 75 74 75 75 75 75 75 75 75 74 74 74 74 74 73 73 73 73 72 72 72 71 72 72 72 71 71 70 71 72 75 73 73 73 73 73
73 74 74 76 77 76 75 75 75 75 74 74 74 74 75 75 75 74 74 73 73 73 73 73 73 73 72 72 72 72 73 72 71 71 71 72 74 73 72 72 73 73 73
73 73 74 73 74 75 75 75 75 75 74 74 74 74 74 74 74 74 74 73 73 73 73 73 73 73 72 72 72 72 74 73 71 71 72 73 75 73 73 72 73 73 73
73 73 73 73 73 73 73 75 75 75 75 74 74 74 74 73 73 73 75 75 73 72 72 72 73 73 72 72 72 71 72 73 70 71 72 73 75 73 73 73 73 73 73
72 73 73 72 73 73 73 73 74 75 75 75 74 74 74 72 72 72 73 73 71 71 71 71 72 73 72 72 72 72 72 71 70 70 72 75 75 73 73 73 73 73 73
70 71 71 71 72 72 72 73 72 73 73 73 72 67 68 70 72 73 73 73 72 73 73 72 72 72 71 69 70 73 69 70 70 71 72 75 74 72 72 73 73 73 73
69 70 70 70 71 71 71 72 72 72 72 72 68 66 68 72 72 72 71 69 62 67 70 71 71 68 69 70 69 71 72 69 69 70 73 75 73 72 71 72 73 73 73
68 68 68 69 70 69 71 71 71 71 70 71 71 68 69 69 70 69 71 69 69 69 69 70 71 70 70 69 69 69 70 70 69 71 74 75 74 73 72 70 71 72 73
66 66 67 68 69 69 69 69 70 69 70 70 71 70 71 68 66 69 71 71 70 71 71 70 71 70 67 64 64 67 68 67 69 72 73 75 75 74 73 72 70 69 70
63 64 66 68 68 68 67 67 67 68 69 70 71 71 71 71 71 71 71 71 71 71 71 69 69 69 67 66 63 66 65 66 67 70 71 73 75 75 74 72 72 72 72
61 62 64 67 68 67 67 67 66 68 67 70 71 72 71 68 71 71 71 71 71 71 70 69 69 68 64 66 61 63 64 65 67 68 70 71 73 75 74 73 73 73 73
61 61 64 65 68 66 69 68 69 68 66 69 71 72 71 70 72 71 71 71 71 71 71 70 69 67 64 67 62 63 63 66 66 68 69 70 71 71 74 75 75 74 72
61 62 64 64 68 66 69 68 69 69 69 69 70 70 72 72 72 69 70 71 69 70 72 70 68 68 66 66 63 62 62 65 65 66 66 68 69 69 71 74 74 75 73
63 63 63 64 68 67 70 68 68 68 68 69 70 70 71 72 72 71 71 68 68 71 71 70 67 67 66 64 63 61 60 62 65 65 65 66 67 68 69 71 72 72 73
64 64 63 64 67 68 69 68 67 65 66 68 68 70 71 72 73 72 71 70 70 71 70 68 64 64 61 63 61 60 61 62 62 64 65 66 66 66 68 69 70 70 71
64 64 64 64 66 68 68 68 68 67 67 68 68 72 72 72 73 72 71 71 71 71 69 69 67 67 62 63 61 58 55 57 59 60 65 66 66 66 67 68 68 68 69
63 64 65 65 66 67 69 68 69 69 68 68 67 69 72 73 73 73 72 72 71 71 70 70 68 65 60 64 62 57 58 55 58 60 61 65 65 65 66 68 67 68 68
61 64 66 67 67 67 69 68 67 67 67 67 66 67 71 72 73 73 73 73 71 72 71 71 68 67 59 59 60 65 61 61 55 53 60 60 62 62 63 67 68 67 68
62 64 65 69 68 68 69 68 67 66 67 67 67 66 69 72 71 72 73 72 71 72 71 70 71 68 65 60 57 61 62 62 63 56 55 57 61 60 62 64 67 67 67
62 63 65 68 68 69 69 69 67 67 67 66 66 66 67 70 71 73 73 72 72 72 71 70 71 69 68 65 64 61 59 57 59 60 58 57 58 59 61 63 64 65 64